Temperature
22 21 20 20 20 21 23 25 26 25 25 25 24 24 23 22 21 20 20 20 20 20 20 20 20 20 20 20 20 19 19 19 19 19 19 19 19 19 19 19 19 19 19 19 19 19 19 19 19
22 21 20 20 21 22 24 25 25 26 25 25 24 23 23 21 20 20 20 20 20 20 20 20 20 20 20 20 20 19 19 19 19 19 19 19 19 19 19 19 19 19 19 19 19 19 19 19 19
22 21 21 20 21 23 25 26 26 26 26 25 24 23 22 21 20 20 20 20 20 20 20 20 20 20 19 19 19 19 19 19 19 19 19 19 19 19 19 19 19 19 19 19 19 19 19 19 19
22 21 21 21 23 25 26 26 27 26 25 25 24 22 22 21 21 21 21 20 20 20 20 20 20 20 19 19 19 19 19 19 19 19 19 19 19 19 19 19 19 19 19 19 19 19 19 19 19
23 22 21 22 24 26 27 27 27 26 25 24 23 22 21 21 21 21 21 20 20 20 20 20 20 20 19 19 19 19 19 19 19 19 19 19 19 19 19 19 19 19 19 19 19 19 19 19 19
23 21 22 23 25 27 27 27 26 25 24 24 23 22 21 21 21 21 21 20 20 20 20 20 20 20 19 19 19 19 19 19 19 19 19 19 19 19 19 19 19 19 19 19 19 19 19 19 19
23 22 23 24 25 27 27 27 26 25 25 24 23 21 21 21 21 21 21 20 20 20 20 20 19 19 19 19 19 19 19 19 19 19 19 19 19 19 19 19 19 19 19 19 19 19 19 19 19
24 22 24 25 26 26 28 28 27 26 25 25 24 22 21 21 21 21 20 20 20 20 20 19 19 19 19 19 19 19 19 19 19 19 19 19 19 19 19 19 19 19 19 19 19 19 19 19 19
25 23 24 25 26 27 28 27 27 26 25 25 24 23 22 21 21 21 20 20 20 20 19 19 19 19 19 19 19 19 19 19 19 19 19 19 19 19 19 19 19 19 18 18 18 18 19 19 18
25 23 25 27 28 27 28 27 27 26 24 24 23 23 22 22 21 21 20 20 20 20 19 19 19 19 19 19 19 19 19 19 19 19 19 19 19 19 18 18 18 18 18 18 18 18 18 18 18
26 25 27 29 29 29 28 28 27 25 24 23 23 22 22 22 21 21 21 20 20 20 19 19 19 19 19 19 19 19 19 19 19 19 19 19 19 18 18 18 18 18 18 18 18 18 18 18 18
28 28 29 29 30 29 28 28 27 26 25 24 24 23 22 22 21 21 21 20 20 20 19 19 19 19 19 19 19 19 19 19 19 19 19 19 18 18 18 18 18 18 18 18 18 18 18 18 18
29 29 30 30 29 29 29 28 27 26 25 24 24 23 22 22 22 21 21 21 20 20 20 19 19 19 19 19 19 19 19 19 19 19 19 19 19 19 19 18 18 18 18 18 18 18 18 18 18
29 29 29 29 29 29 28 27 26 25 25 24 23 23 22 22 22 21 21 21 20 20 20 19 19 19 19 19 19 19 19 19 19 19 19 19 19 19 18 18 18 18 18 18 18 18 18 18 18
30 28 28 29 29 29 28 26 26 25 25 24 23 23 22 22 22 22 22 21 21 20 20 20 20 19 19 19 19 19 19 19 19 19 19 19 19 19 19 18 18 18 18 18 18 18 18 18 18
27 27 27 28 29 29 27 25 26 26 25 24 24 23 22 22 22 22 22 21 21 21 21 20 20 20 19 19 19 19 19 19 19 19 19 19 19 19 19 18 18 18 18 18 18 18 18 18 18
25 25 26 28 29 29 27 25 25 25 25 24 24 23 22 22 22 22 22 22 21 21 21 20 20 20 20 19 19 19 19 19 19 19 19 19 19 19 19 18 18 18 18 18 18 18 18 18 18
25 25 26 27 28 28 27 25 25 25 25 24 24 23 22 22 22 22 22 22 22 21 21 21 20 20 20 19 19 19 19 19 19 19 19 19 19 19 19 18 18 18 18 18 18 18 18 18 18
27 27 26 27 28 27 26 25 25 25 24 24 24 23 23 22 22 22 22 22 21 21 21 21 21 20 20 20 19 19 19 19 19 19 19 19 19 19 19 19 18 18 18 18 18 18 18 18 18
27 26 26 27 28 27 25 25 25 25 24 24 24 23 23 22 22 22 22 22 22 21 21 21 21 20 20 20 20 20 19 19 19 19 19 19 19 19 19 19 19 18 18 18 18 18 18 18 18
27 26 26 27 27 27 26 24 24 25 25 25 24 23 23 23 22 22 22 22 22 21 21 21 21 20 20 20 20 19 19 19 19 19 19 19 19 19 19 19 19 18 18 18 18 18 18 18 18
27 28 28 28 26 24 25 23 23 23 24 24 24 23 23 23 22 22 22 22 22 22 21 21 21 20 20 20 20 20 20 19 19 19 19 19 19 19 19 19 19 18 18 18 18 18 18 18 18
28 29 28 28 26 24 24 23 23 22 23 23 23 24 23 23 23 22 22 22 22 22 21 21 21 21 20 20 20 20 20 20 19 19 19 19 19 19 19 19 19 19 19 18 18 18 18 18 18
29 28 26 24 22 23 24 23 22 22 23 23 23 24 24 23 23 23 23 22 22 22 21 21 21 21 20 20 20 20 20 20 19 19 19 19 19 19 19 19 19 19 19 19 18 18 18 18 18
27 24 23 23 22 22 23 23 22 23 24 24 23 24 24 24 23 23 22 22 22 22 21 21 21 21 20 20 20 20 20 20 20 19 19 19 19 19 19 19 19 19 19 19 18 18 18 18 18
26 24 23 23 22 22 23 23 23 24 24 24 25 24 24 23 23 23 23 22 22 22 22 21 21 21 21 20 20 20 20 20 19 19 19 19 19 19 19 19 19 19 19 19 18 18 18 18 18
27 24 23 21 22 22 22 22 23 24 23 23 24 24 23 23 23 23 23 22 22 22 22 21 21 21 21 21 20 20 20 20 19 19 19 19 19 19 19 19 19 19 18 18 18 18 18 18 18
27 25 21 21 22 22 22 22 22 23 23 22 22 23 23 23 23 23 23 23 22 22 22 21 21 21 21 21 20 20 20 20 20 19 19 19 19 19 19 19 19 18 18 18 18 18 18 18 18
26 25 22 19 20 21 21 21 23 22 22 22 22 23 23 23 23 23 23 22 22 22 21 21 21 21 20 20 20 20 20 20 19 19 19 19 19 19 19 19 18 18 18 18 18 18 18 18 18
25 24 22 22 21 19 20 21 23 22 22 22 22 23 23 23 23 23 23 22 22 21 21 21 21 20 20 20 20 20 20 19 19 19 19 19 19 19 18 18 18 18 18 18 18 18 18 18 18
Wind_Speed
12 9 4 1 1 2 1 3 6 7 6 7 11 11 9 7 4 4 1 5 7 7 10 15 16 17 17 18 18 18 18 19 20 20 21 22 22 21 21 21 21 20 19 18 17 17 16 16 16
9 7 3 0 2 3 2 5 9 10 10 11 12 11 9 7 6 6 3 6 8 8 10 13 17 17 18 18 18 18 18 19 19 20 21 21 21 21 21 20 20 19 19 18 17 16 15 15 15
8 5 1 1 0 3 3 6 12 12 10 8 7 7 6 5 6 5 5 9 8 8 10 14 17 18 18 18 18 18 18 19 19 20 20 21 21 20 20 20 19 19 18 17 16 15 14 14 14
3 1 1 1 2 4 6 7 13 12 9 9 9 7 5 4 5 7 10 11 10 7 10 14 17 17 18 18 18 18 18 19 19 19 19 20 20 20 19 19 18 18 17 16 14 14 13 13 12
1 2 3 2 1 2 6 11 12 10 6 9 11 8 5 4 11 12 12 11 11 8 9 13 16 17 17 18 18 18 18 19 19 19 19 20 20 19 19 19 18 17 17 15 13 12 12 12 11
2 3 2 2 3 2 5 10 14 14 13 11 11 8 4 7 11 12 11 10 10 10 8 12 15 17 17 17 17 17 18 18 18 18 19 19 19 19 18 18 17 16 16 14 12 11 11 10 9
2 2 1 2 3 3 6 8 11 12 11 8 9 7 5 7 10 11 11 10 9 9 8 8 11 13 16 16 16 17 17 17 17 18 18 18 18 18 17 17 17 16 15 14 12 10 9 9 8
3 2 1 2 4 2 5 6 9 12 9 10 8 8 7 9 11 12 11 10 9 8 6 6 7 9 10 12 15 16 16 17 17 17 17 17 17 17 17 17 16 16 15 13 12 10 8 8 7
2 2 2 3 4 3 6 9 7 7 10 6 5 8 12 15 15 14 11 9 8 7 5 5 5 6 8 10 13 14 15 16 16 15 16 15 13 14 15 16 16 16 15 13 12 10 8 6 5
5 4 7 6 5 5 7 10 8 7 10 8 11 12 15 16 15 14 13 11 9 7 5 4 5 5 6 8 8 9 11 11 11 11 12 11 11 12 13 15 16 15 14 13 11 10 8 5 4
7 7 5 4 6 7 6 6 6 11 7 11 17 17 16 15 14 13 12 11 10 8 7 5 5 6 5 4 6 6 7 8 9 10 10 10 9 9 8 8 10 11 11 9 9 8 6 5 4
3 5 3 4 5 8 8 6 6 7 10 14 17 17 16 16 14 13 13 11 10 8 7 6 5 5 5 5 5 5 5 6 6 8 10 9 6 5 6 6 7 7 7 6 6 5 5 5 5
0 1 2 3 3 6 9 8 8 8 13 15 15 16 17 16 13 12 12 11 10 9 8 6 6 6 5 5 4 6 5 6 7 8 8 9 6 5 5 5 6 6 6 5 5 4 4 3 4
2 1 0 4 4 5 9 8 7 9 14 15 15 14 15 15 14 12 12 10 10 9 8 6 7 6 6 5 4 5 6 7 7 7 9 10 8 6 6 5 5 5 7 7 6 5 4 3 2
2 2 1 3 4 4 9 5 5 13 15 14 14 14 14 13 14 14 14 12 11 10 8 7 7 6 6 6 5 5 6 7 6 7 9 10 9 8 6 5 5 5 7 7 5 3 2 2 2
5 3 1 4 2 4 7 5 7 13 16 14 13 14 13 12 14 14 14 12 11 10 8 8 8 7 7 6 5 5 6 6 6 8 8 9 10 9 6 5 5 6 6 5 4 3 2 2 2
4 2 5 6 2 2 5 5 8 11 15 14 13 13 13 12 12 13 14 13 12 11 10 8 7 7 7 6 5 4 5 6 7 8 8 8 9 10 7 5 4 6 5 4 4 3 3 2 2
6 5 5 5 3 1 2 5 9 10 11 12 12 11 12 13 13 13 14 14 12 11 10 9 8 7 6 5 4 3 4 4 6 7 8 9 9 9 7 5 5 5 4 4 4 3 3 3 2
7 6 6 7 5 1 3 5 10 11 9 9 11 11 12 12 11 12 14 14 12 10 10 9 9 7 6 4 4 4 4 4 4 6 8 10 9 9 7 5 5 5 5 5 5 4 3 2 2
6 5 6 7 3 1 3 3 7 11 12 12 12 12 13 11 10 12 12 13 13 12 11 10 9 8 7 6 4 4 4 4 4 5 6 9 9 8 8 6 5 6 5 5 5 4 3 2 3
7 6 5 4 4 2 3 2 2 5 7 9 10 12 13 15 15 14 14 13 13 12 12 11 10 9 7 6 4 3 3 2 3 4 4 6 8 8 7 7 6 6 6 6 6 6 5 4 3
8 8 6 4 1 3 2 2 5 5 6 9 11 11 13 14 13 13 15 14 14 13 12 10 10 9 8 7 6 6 6 5 5 5 5 5 7 8 8 7 7 6 5 6 6 5 4 5 4
8 7 5 3 3 1 2 3 5 2 6 10 11 12 12 14 14 14 16 15 14 12 11 10 9 8 8 7 7 7 5 5 4 4 5 5 5 6 7 7 6 6 6 6 6 4 5 5 5
3 2 5 5 4 1 4 4 4 4 8 8 10 12 11 12 13 13 12 11 10 10 10 10 10 9 8 8 7 7 7 6 5 5 6 5 4 5 6 7 6 6 6 7 7 6 6 5 5
2 5 4 5 4 5 3 3 5 7 6 8 10 11 10 8 11 11 11 11 11 12 12 10 10 10 9 9 8 7 7 7 7 6 6 6 5 5 7 7 6 6 6 7 7 7 7 6 6
3 9 7 5 4 4 4 1 5 3 3 4 7 8 8 7 8 10 12 13 13 13 12 12 12 10 10 10 9 7 7 6 5 5 5 5 5 6 6 7 7 7 7 7 6 6 7 6 7
2 3 8 7 2 0 3 3 4 2 3 4 3 5 6 7 8 10 12 11 11 11 11 11 11 10 11 11 9 8 7 7 6 6 5 4 4 5 5 6 6 6 6 7 6 6 7 6 6
5 5 5 5 3 1 3 3 3 2 2 3 4 5 5 6 7 8 9 9 9 9 8 8 8 10 10 10 10 9 8 8 7 6 6 5 5 5 4 5 6 6 5 6 6 5 5 5 5
1 2 4 4 5 6 3 5 4 7 6 6 4 5 7 7 7 8 8 8 8 7 7 7 7 7 8 9 8 8 7 7 6 6 6 6 5 5 5 5 5 5 6 5 5 5 5 5 5
3 4 5 4 2 4 4 5 3 4 4 4 4 4 5 6 6 8 8 7 6 6 7 7 6 6 7 8 7 7 6 6 6 7 7 6 6 6 5 5 5 5 5 5 5 6 5 6 6
Wind_Direction
167 162 158 184 297 31 72 105 114 95 68 68 77 82 83 72 93 132 180 141 132 145 149 144 139 135 131 130 129 129 129 128 127 127 127 128 128 129 130 131 132 132 132 132 132 130 129 128 129
161 166 178 171 50 60 68 117 102 108 126 113 84 82 76 68 82 110 120 137 135 136 140 141 140 138 134 132 131 132 131 131 131 131 131 132 131 131 132 132 131 132 133 133 133 133 132 131 131
174 183 177 49 163 153 127 121 113 112 117 105 92 70 71 88 104 127 144 139 128 123 131 138 137 138 136 134 134 135 134 134 134 134 134 134 134 134 135 134 133 133 134 134 134 135 136 135 133
159 127 37 38 238 194 155 136 121 112 87 82 98 76 64 81 117 134 135 131 125 119 127 134 135 138 137 138 138 138 137 137 138 137 138 138 139 139 139 136 136 135 135 135 136 138 140 140 137
101 86 27 339 10 122 135 127 120 110 98 95 98 99 85 73 111 127 132 130 126 120 129 135 135 138 140 141 141 140 140 141 142 142 142 143 143 143 143 140 140 140 139 139 140 142 144 145 142
95 83 59 34 65 87 117 118 109 105 114 112 106 108 106 125 127 134 132 127 127 126 126 132 134 140 142 143 143 142 143 144 144 146 146 146 147 146 146 145 145 146 145 145 144 144 146 148 147
131 110 194 139 108 97 120 121 118 126 129 130 126 107 122 138 140 135 130 125 121 123 126 129 137 140 144 144 144 145 148 149 149 148 150 151 151 152 152 150 151 151 151 151 150 147 149 154 157
166 94 329 132 116 120 125 106 119 122 121 134 129 130 150 155 140 129 123 119 117 113 118 122 133 136 141 145 148 149 151 152 152 152 153 154 156 156 158 157 158 158 157 156 156 154 154 161 169
148 76 224 181 141 148 128 108 102 97 113 122 111 128 143 141 133 127 122 116 117 118 120 122 128 130 137 147 152 152 153 156 155 155 155 154 156 158 161 163 165 165 164 164 165 166 165 168 179
158 190 219 196 162 152 138 127 126 105 103 106 109 117 132 135 135 134 135 135 136 137 138 131 139 142 141 143 143 147 152 153 152 153 154 152 154 162 165 171 172 170 170 172 177 180 181 185 204
178 195 215 178 158 137 128 127 124 126 127 146 143 143 143 139 137 138 141 146 150 152 148 144 146 146 142 136 137 140 145 147 149 152 153 153 154 164 169 175 176 175 176 181 186 189 197 207 223
197 232 192 154 156 131 142 135 128 142 157 155 147 147 146 144 146 147 148 149 150 149 153 154 149 146 143 140 140 144 146 149 155 161 159 157 157 160 167 167 172 179 182 183 192 201 208 211 220
98 213 175 157 150 131 128 131 127 130 137 139 138 141 146 148 151 152 149 148 149 150 152 151 146 142 146 142 150 147 151 155 162 168 169 163 158 160 165 167 172 182 182 186 187 191 201 210 225
238 281 213 153 139 136 124 126 118 142 138 137 141 148 153 153 153 150 151 154 157 157 155 153 143 146 149 148 145 148 158 161 164 171 173 170 169 165 163 166 174 187 191 194 195 193 193 206 218
342 9 338 169 146 149 116 104 149 156 144 144 152 156 156 154 154 156 161 163 163 161 156 156 152 149 149 151 151 150 162 164 167 175 176 174 171 169 167 166 176 188 187 187 189 190 190 198 204
1 9 313 260 173 183 122 160 177 159 148 154 159 160 160 160 161 163 164 164 163 159 158 163 159 152 151 151 148 148 160 164 170 174 176 176 173 170 166 169 182 190 185 180 176 179 183 205 204
4 313 278 288 263 173 128 167 182 165 159 162 161 163 166 164 166 168 167 166 165 164 163 163 158 158 159 155 153 155 158 162 172 174 176 179 178 177 174 175 183 183 177 175 186 179 177 189 212
255 264 270 276 291 89 134 166 170 171 166 165 160 159 167 172 176 171 167 166 166 167 165 165 162 165 164 155 148 151 158 166 174 177 179 179 181 183 180 179 181 176 169 180 181 177 182 189 197
233 247 264 277 268 118 167 166 175 178 173 168 162 166 175 181 177 170 166 165 165 167 167 170 169 174 167 160 166 169 175 171 171 178 178 180 181 181 176 177 174 175 179 188 183 173 180 203 164
243 250 267 287 290 191 176 190 183 175 184 183 174 178 180 175 172 175 170 169 171 172 173 174 176 175 175 177 176 172 164 167 172 174 180 186 184 182 181 174 180 181 180 183 185 174 171 203 172
252 222 227 246 322 3 96 12 194 191 189 187 185 186 185 182 179 176 176 176 176 177 176 178 178 176 177 172 155 148 130 128 153 170 184 191 188 187 187 183 182 184 182 188 194 186 180 195 203
256 240 213 216 201 267 143 210 258 209 197 195 194 191 190 187 180 179 177 177 180 181 177 175 174 172 175 172 167 165 171 179 192 187 190 193 192 192 195 192 187 185 185 188 197 193 186 181 200
234 233 209 198 170 326 335 144 267 202 205 212 201 195 189 189 185 184 183 181 181 178 177 176 172 173 176 176 178 177 180 184 180 178 186 195 198 198 199 194 188 189 191 194 199 197 195 189 194
238 35 18 43 71 312 247 170 255 230 205 202 201 198 194 193 187 186 182 175 177 176 175 177 176 180 181 179 179 180 181 182 179 187 193 200 203 205 204 199 195 197 196 200 201 203 201 202 201
49 84 25 352 4 257 260 147 235 242 201 181 184 189 186 183 181 177 174 176 179 179 180 181 181 183 184 183 185 187 188 184 190 191 194 195 201 208 211 206 199 203 206 203 198 202 210 206 206
220 140 158 203 224 268 333 206 264 244 181 163 168 168 166 164 169 173 176 180 180 180 183 184 186 189 186 187 192 192 187 187 195 193 189 197 206 210 206 204 203 207 206 209 204 209 213 210 211
176 177 174 154 182 253 292 281 315 36 92 109 131 142 149 158 166 171 170 176 180 182 186 185 187 190 191 191 191 194 193 192 196 195 191 197 206 210 204 204 206 209 207 208 203 213 217 212 213
168 163 93 112 145 218 281 262 225 242 187 159 157 163 165 161 160 162 167 171 174 176 180 182 183 192 195 194 195 198 199 201 199 192 196 201 206 206 201 204 207 208 208 205 202 211 217 210 216
3 77 102 119 147 158 213 267 229 197 191 170 170 163 164 156 162 159 159 164 164 159 164 175 183 187 195 196 196 198 198 201 198 199 202 201 204 205 210 206 205 210 212 209 205 210 203 208 222
153 156 132 143 227 163 165 253 282 173 159 139 134 139 143 152 159 155 152 151 155 167 173 171 172 180 192 193 193 199 198 194 201 210 211 203 204 208 211 210 207 210 213 210 207 214 212 211 223
Height
1497 1498 1498 1500 1501 1504 1502 1491 1485 1484 1485 1486 1485 1486 1490 1494 1498 1505 1501 1499 1498 1497 1497 1498 1499 1501 1502 1504 1505 1507 1509 1511 1513 1515 1517 1519 1522 1524 1526 1529 1531 1534 1536 1539 1541 1543 1545 1547 1549
1497 1498 1499 1500 1504 1512 1503 1488 1486 1485 1487 1487 1488 1490 1492 1496 1497 1498 1499 1499 1498 1497 1497 1497 1499 1501 1503 1504 1506 1508 1510 1512 1514 1516 1518 1521 1523 1525 1528 1530 1533 1535 1537 1540 1542 1544 1546 1548 1550
1496 1497 1499 1500 1505 1508 1501 1487 1485 1486 1487 1486 1489 1492 1495 1498 1498 1499 1499 1499 1499 1498 1497 1498 1499 1502 1504 1505 1507 1509 1511 1513 1515 1517 1520 1522 1525 1527 1530 1532 1534 1536 1539 1541 1543 1545 1547 1549 1551
1496 1498 1500 1503 1503 1493 1488 1485 1484 1486 1488 1488 1490 1495 1498 1500 1499 1500 1500 1501 1500 1499 1499 1499 1500 1502 1504 1506 1508 1510 1512 1514 1517 1519 1521 1523 1526 1528 1531 1533 1536 1538 1540 1542 1544 1546 1548 1550 1552
1497 1498 1503 1506 1498 1488 1483 1482 1483 1486 1488 1491 1491 1497 1500 1501 1501 1501 1501 1502 1502 1501 1500 1501 1502 1504 1506 1508 1509 1511 1513 1515 1518 1520 1522 1525 1527 1530 1532 1535 1537 1539 1541 1543 1545 1547 1549 1551 1553
1497 1499 1510 1511 1498 1488 1484 1483 1484 1488 1491 1493 1494 1497 1502 1503 1502 1502 1503 1504 1504 1503 1503 1503 1503 1505 1507 1509 1511 1512 1514 1516 1519 1521 1524 1526 1529 1531 1533 1536 1538 1540 1542 1544 1546 1548 1549 1551 1553
1498 1501 1507 1503 1499 1492 1486 1484 1484 1488 1491 1493 1494 1498 1502 1504 1503 1504 1505 1505 1506 1506 1506 1506 1506 1507 1509 1510 1511 1513 1515 1518 1520 1522 1525 1527 1530 1532 1534 1537 1539 1541 1543 1545 1547 1549 1550 1552 1554
1496 1500 1504 1501 1498 1495 1486 1485 1487 1488 1491 1493 1494 1496 1501 1503 1504 1505 1506 1507 1508 1508 1508 1508 1508 1509 1510 1511 1512 1514 1516 1519 1521 1523 1526 1528 1530 1533 1535 1537 1540 1542 1544 1546 1547 1550 1551 1553 1555
1495 1503 1507 1499 1494 1492 1486 1486 1489 1489 1490 1493 1494 1495 1499 1502 1504 1506 1507 1508 1509 1510 1510 1510 1510 1511 1511 1512 1513 1515 1517 1520 1522 1524 1527 1529 1531 1533 1536 1538 1541 1543 1545 1547 1549 1551 1553 1554 1556
1494 1503 1496 1486 1484 1486 1486 1486 1488 1491 1493 1495 1496 1499 1501 1503 1504 1506 1507 1508 1509 1510 1511 1511 1511 1512 1512 1513 1514 1515 1517 1520 1523 1525 1527 1530 1532 1534 1537 1539 1542 1544 1546 1547 1549 1551 1553 1555 1557
1488 1490 1483 1481 1481 1483 1485 1486 1487 1490 1495 1494 1495 1498 1501 1503 1505 1506 1507 1508 1510 1511 1511 1512 1512 1513 1513 1514 1515 1516 1518 1521 1523 1526 1528 1530 1533 1535 1537 1540 1542 1544 1546 1548 1550 1552 1554 1555 1557
1485 1482 1481 1480 1480 1481 1484 1485 1488 1488 1491 1494 1495 1497 1500 1503 1505 1506 1507 1509 1510 1511 1512 1513 1513 1514 1515 1515 1516 1517 1519 1522 1524 1527 1529 1531 1533 1536 1538 1540 1543 1545 1547 1549 1550 1552 1554 1555 1557
1481 1481 1480 1480 1479 1479 1481 1484 1486 1490 1492 1495 1498 1500 1501 1503 1505 1507 1509 1510 1511 1512 1513 1514 1515 1515 1516 1516 1517 1518 1520 1523 1525 1527 1530 1531 1533 1535 1538 1540 1543 1545 1547 1549 1550 1552 1554 1556 1557
1480 1479 1479 1479 1478 1480 1482 1486 1487 1492 1493 1496 1498 1500 1502 1503 1505 1507 1509 1510 1511 1512 1513 1514 1515 1516 1517 1518 1519 1520 1522 1524 1526 1528 1530 1532 1534 1536 1538 1541 1543 1545 1547 1549 1551 1552 1554 1555 1557
1480 1481 1480 1479 1478 1481 1483 1491 1489 1491 1493 1496 1499 1501 1502 1504 1505 1507 1508 1510 1511 1512 1514 1515 1516 1517 1518 1519 1520 1521 1523 1525 1527 1528 1531 1533 1534 1537 1539 1541 1543 1545 1547 1549 1551 1552 1554 1555 1556
1481 1487 1492 1480 1478 1479 1486 1500 1490 1491 1492 1495 1497 1500 1502 1503 1504 1506 1508 1509 1511 1512 1514 1515 1516 1517 1518 1520 1521 1522 1524 1525 1527 1529 1531 1533 1535 1537 1539 1541 1543 1545 1547 1548 1550 1551 1553 1554 1556
1492 1499 1495 1484 1476 1477 1484 1494 1489 1490 1490 1492 1495 1497 1500 1502 1504 1505 1507 1509 1511 1512 1514 1515 1516 1517 1519 1520 1521 1523 1524 1525 1527 1529 1531 1533 1535 1537 1538 1540 1542 1544 1546 1548 1549 1551 1552 1554 1555
1503 1499 1494 1489 1479 1478 1484 1488 1488 1489 1490 1491 1494 1497 1500 1501 1502 1503 1506 1508 1510 1512 1514 1515 1516 1518 1519 1520 1522 1523 1524 1525 1526 1528 1530 1532 1534 1536 1538 1540 1542 1543 1545 1547 1548 1550 1551 1553 1554
1488 1492 1493 1485 1476 1480 1485 1487 1487 1488 1490 1492 1493 1496 1498 1500 1502 1503 1505 1507 1510 1511 1513 1514 1516 1517 1519 1520 1521 1521 1522 1524 1525 1527 1529 1532 1534 1535 1537 1539 1541 1542 1544 1545 1547 1549 1550 1551 1553
1484 1491 1491 1483 1475 1479 1486 1487 1485 1486 1487 1489 1491 1494 1496 1499 1500 1502 1504 1506 1508 1510 1511 1513 1515 1517 1518 1519 1520 1521 1522 1524 1525 1527 1529 1531 1533 1535 1536 1538 1540 1541 1543 1544 1546 1547 1548 1550 1551
1483 1488 1487 1485 1479 1480 1487 1496 1491 1487 1487 1489 1490 1491 1494 1495 1496 1498 1501 1503 1506 1508 1509 1512 1514 1515 1517 1519 1520 1521 1522 1523 1525 1526 1528 1530 1532 1534 1536 1537 1539 1540 1542 1543 1544 1546 1547 1548 1550
1485 1473 1475 1478 1489 1497 1492 1514 1498 1489 1488 1487 1487 1488 1490 1492 1493 1494 1497 1500 1502 1505 1508 1511 1513 1514 1516 1518 1519 1519 1520 1521 1523 1525 1527 1530 1531 1533 1535 1536 1538 1539 1540 1541 1543 1545 1546 1547 1547
1472 1465 1470 1475 1486 1497 1495 1508 1504 1492 1492 1486 1484 1484 1485 1487 1489 1491 1493 1497 1500 1503 1506 1509 1511 1513 1515 1516 1517 1519 1519 1521 1523 1525 1527 1528 1530 1531 1533 1534 1536 1537 1538 1539 1541 1542 1543 1544 1545
1462 1468 1474 1483 1495 1511 1499 1506 1509 1494 1487 1482 1481 1482 1483 1485 1487 1490 1493 1497 1500 1502 1505 1508 1510 1511 1513 1515 1516 1517 1518 1520 1522 1523 1525 1527 1528 1530 1531 1532 1534 1535 1536 1537 1538 1540 1541 1542 1542
1466 1487 1509 1513 1521 1516 1497 1501 1501 1481 1476 1476 1477 1479 1481 1483 1485 1488 1492 1495 1498 1501 1503 1505 1508 1509 1511 1513 1514 1515 1517 1519 1520 1521 1523 1525 1526 1527 1529 1530 1531 1532 1534 1535 1536 1537 1538 1539 1540
1470 1484 1511 1522 1523 1515 1499 1503 1491 1475 1473 1472 1473 1476 1479 1480 1483 1486 1489 1492 1495 1498 1501 1503 1504 1506 1509 1510 1512 1513 1515 1517 1518 1520 1521 1523 1524 1525 1526 1528 1529 1530 1531 1532 1533 1534 1534 1535 1536
1470 1479 1481 1501 1507 1516 1509 1497 1484 1474 1473 1473 1473 1475 1477 1479 1481 1484 1486 1490 1492 1495 1498 1500 1502 1504 1506 1507 1509 1511 1512 1514 1516 1518 1519 1520 1521 1523 1524 1525 1526 1527 1528 1529 1529 1530 1531 1532 1532
1460 1468 1486 1500 1515 1523 1513 1503 1497 1483 1477 1473 1473 1474 1476 1478 1481 1483 1486 1488 1491 1494 1496 1499 1500 1502 1503 1505 1506 1508 1509 1511 1513 1515 1516 1517 1519 1520 1521 1521 1522 1523 1524 1525 1526 1526 1527 1528 1528
1467 1471 1483 1497 1502 1517 1522 1510 1478 1477 1473 1473 1473 1474 1475 1478 1480 1482 1484 1487 1490 1493 1495 1497 1498 1500 1502 1503 1504 1505 1506 1508 1510 1511 1512 1513 1515 1516 1517 1518 1519 1519 1520 1521 1522 1522 1523 1524 1524
1463 1469 1481 1497 1502 1505 1512 1506 1472 1472 1472 1472 1473 1475 1476 1478 1480 1482 1484 1486 1489 1492 1493 1494 1495 1497 1499 1500 1501 1502 1504 1505 1506 1507 1508 1510 1511 1512 1513 1514 1515 1516 1517 1517 1518 1518 1519 1520 1521